カタログに戻る

CZ-6A DEB

運用中PO
NORAD 61084·DEBRIS·🇨🇳 China

打ち上げ Aug 6, 2024 から Taiyuan Satellite Launch Center

Loading…

次のパス (今後24時間)

TLE

最新Source: Space-Track

元期: Sep 14, 2026, 17:42 UTC

1 61084U 24140NA  26257.73815077  .00001824  00000-0  91101-3 0  9990
2 61084  88.9874 264.8280 0085610 296.7749  62.4698 14.14591775105802

AllMySatでCZ-6A DEBをリアルタイム追跡

Download on the App Store